Volver al catálogo

STARLINK-35690

ActivoComunicacionesVLEO
NORAD 66383·PAYLOAD·🇺🇸 United States

Lanzado Nov 8, 2025 desde Cape Canaveral Space Force Station

Loading…

Próximos Pases (próximas 24 horas)

TLE

ActualizadoSource: CelesTrak SupGP

Época: Sep 15, 2026, 03:04 UTC

1 66383C 25257D   26258.12826389 -.00020380  00000+0 -60208-3 0  2580
2 66383  53.1595  52.6575 0001133  78.4882 153.0365 15.34404076    19

Sigue STARLINK-35690 en tiempo real con AllMySat

Download on the App Store